This is the latest recevied weather packets stored in our database for station/object K8RRT. If no packets are shown the sender has not sent any weather packets the latest 10 day(s).
| Time | Temp. | Humidity | Pressure | Rain* | Wind** | Luminosity | Snow |
|---|---|---|---|---|---|---|---|
| 1777461172 | 16.67° C | 97% | 1006.8 hPa | 0 mm | - | 27 W/m² | - |
| 1777460872 | 16.67° C | 97% | 1006.8 hPa | 0 mm | - | 22 W/m² | - |
| 1777460568 | 16.67° C | 97% | 1006.9 hPa | 0 mm | - | 14 W/m² | - |
| 1777460264 | 16.67° C | 97% | 1006.6 hPa | 0 mm | - | 11 W/m² | - |
| 1777459961 | 16.67° C | 97% | 1006.7 hPa | 0 mm | - | 6 W/m² | - |
| 1777459658 | 16.67° C | 98% | 1006.6 hPa | 0 mm | - | 6 W/m² | - |
| 1777459354 | 16.67° C | 98% | 1006.6 hPa | 0 mm | - | 3 W/m² | - |
| 1777459052 | 16.67° C | 98% | 1006.6 hPa | 0 mm | - | 1 W/m² | - |
| 1777458749 | 17.22° C | 99% | 1006.3 hPa | 0 mm | - | 0 W/m² | - |
| 1777458446 | 17.22° C | 99% | 1006.2 hPa | 0 mm | - | 0 W/m² | - |
| 1777458142 | 17.22° C | 99% | 1006 hPa | 0 mm | - | 0 W/m² | - |
| 1777457838 | 17.22° C | 99% | 1006.1 hPa | 0 mm | - | 0 W/m² | - |
| 1777457533 | 17.22° C | 99% | 1006 hPa | 0 mm | - | 0 W/m² | - |
| 1777457229 | 17.22° C | 99% | 1006.1 hPa | 3.05 mm | - | 0 W/m² | - |
| 1777456924 | 16.67° C | 99% | 1006.2 hPa | 3.05 mm | - | 0 W/m² | - |
| 1777456620 | 16.67° C | 99% | 1006.6 hPa | 0 mm | - | 0 W/m² | - |
| 1777456316 | 16.67° C | 99% | 1006.4 hPa | 0 mm | - | 0 W/m² | - |
| 1777456011 | 16.11° C | 99% | 1006.3 hPa | 0 mm | - | 0 W/m² | - |
| 1777455708 | 16.67° C | 99% | 1006.1 hPa | 0 mm | - | 0 W/m² | - |
| 1777455404 | 16.11° C | 99% | 1006.3 hPa | 0 mm | - | 0 W/m² | - |
| 1777455101 | 16.11° C | 99% | 1006.3 hPa | 0 mm | - | 0 W/m² | - |
| 1777454799 | 16.11° C | 99% | 1006.4 hPa | 0 mm | - | 0 W/m² | - |
| 1777454494 | 16.11° C | 99% | 1006.6 hPa | 0 mm | - | 0 W/m² | - |
| 1777454191 | 16.11° C | 99% | 1006.6 hPa | 0 mm | - | 0 W/m² | - |
| 1777453887 | 16.11° C | 99% | 1006.5 hPa | 0 mm | - | 0 W/m² | - |
* Rain latest hour (hover to see other rain measurements)
** Current wind speed in m/s (hover to see current wind gust speed)